Location: Saluda
(35.2377°N, 82.3468°W)
Time: 05:42:34
(UTC+00:00)

Vanguard 2 - Pass Details

Date: 12 October 2022
Orbit: 553 x 2933 km, 32.9° (Epoch: 26 November)

Event Time Altitude Azimuth Distance (km) Brightness Sun altitude
Rises 15:09:05 0° 235° (SW) 3,184 10.7 37.8°
Reaches altitude 10° 15:11:10 10° 229° (SW) 2,444 10.2 38.1°
Maximum altitude 15:16:45 49° 155° (SSE) 1,413 10.9 38.8°
Drops below altitude 10° 15:25:51 10° 84° (E) 3,946 11.6 40.0°
Sets 15:30:06 0° 80° (E) 5,349 12.1 40.5°
